Location: Unspecified
(0.0000°N, 0.0000°E)
Time: 09:51:00
(UTC+00:00)

Vanguard 3 - Pass Details

Date: 03 October 2023
Orbit: 507 x 3241 km, 33.3° (Epoch: 06 December)

Event Time Altitude Azimuth Distance (km) Brightness Sun altitude
Rises 02:08:58 0° 289° (WNW) 2,600 - -54.9°
Reaches altitude 10° 02:11:10 10° 278° (W) 1,711 - -54.3°
Maximum altitude 02:14:32 33° 212° (SSW) 928 - -53.5°
Drops below altitude 10° 02:18:38 10° 146° (SSE) 2,100 - -52.5°
Sets 02:21:39 0° 137° (SE) 3,318 - -51.7°
